Date String (YYYY-MM-DD hh:mm:ss) UTC,Instrument flags,Ambient pressure (hPa),Sample flow (lpm),Bypass flow (lpm),Sample temperature (°C),Ambient temperature (°C),ASC tube jacket temperature (°C),LED temperature (°C),Box temperature (°C),Sample RH (%),Span deviation,Mass concentration (μg/m³),Mass concentration (μg/m³),Mass concentration (μg/m³)
DateTimeUTC,F1_M11,P_M11,Q1_M11,Q2_M11,T1_M11,T2_M11,T3_M11,T4_M11,T5_M11,U1_M11,ZSPAN_M11,X2_M11,X0_M11,X1_M11
2023-02-10 10:00:00,,0833.6,5.01,0.00,21.3,19.3,00.0,30.3,22.7,06.6,0000.0,0002.52,0004.05,0002.15
2023-02-10 10:01:00,,0833.6,4.98,0.00,21.3,20.2,00.0,30.3,22.9,06.6,0000.0,0002.53,0004.33,0002.16
2023-02-10 10:02:00,,0833.7,4.98,0.00,21.5,21.5,00.0,30.3,23.3,06.5,0000.0,0002.54,0004.41,0002.15
2023-02-10 10:03:00,,0833.6,5.00,0.00,21.6,22.1,00.0,30.3,23.5,06.5,0000.0,0002.54,0004.44,0002.15
2023-02-10 10:04:00,,0833.6,5.00,0.00,21.6,21.5,00.0,30.3,23.3,06.5,0000.0,0002.56,0004.33,0002.15
2023-02-10 10:05:00,,0833.6,4.99,0.00,21.6,20.8,00.0,30.4,23.2,06.5,0000.0,0002.54,0004.31,0002.14
2023-02-10 10:06:00,,0833.6,4.99,0.00,21.5,20.2,00.0,30.4,23.0,06.5,0000.0,0002.51,0004.23,0002.14
2023-02-10 10:07:00,,0833.6,5.02,0.00,21.4,19.7,00.0,30.4,22.8,06.4,0000.0,0002.49,0004.26,0002.13
2023-02-10 10:08:00,,0833.6,5.01,0.00,21.3,19.3,00.0,30.3,22.7,06.4,0000.0,0002.50,0004.49,0002.13
2023-02-10 10:09:00,,0833.5,5.02,0.00,21.3,19.5,00.0,30.3,22.7,06.4,0000.0,0002.48,0004.40,0002.13
2023-02-10 10:10:00,,0833.6,4.97,0.00,21.4,20.8,00.0,30.3,23.1,06.4,0000.0,0002.45,0004.34,0002.12
2023-02-10 10:11:00,,0833.6,5.04,0.00,21.5,22.0,00.0,30.3,23.4,06.3,0000.0,0002.43,0004.01,0002.09
2023-02-10 10:12:00,,0833.6,4.96,0.00,21.6,22.0,00.0,30.3,23.5,06.3,0000.0,0002.42,0003.74,0002.09
2023-02-10 10:13:00,,0833.6,5.01,0.00,21.6,21.2,00.0,30.4,23.3,06.3,0000.0,0002.43,0003.71,0002.12
2023-02-10 10:14:00,,0833.6,4.98,0.00,21.5,20.5,00.0,30.4,23.1,06.3,0000.0,0002.41,0003.56,0002.12
2023-02-10 10:15:00,,0833.6,5.01,0.00,21.5,20.0,00.0,30.4,23.0,06.3,0000.0,0002.41,0003.74,0002.11
2023-02-10 10:16:00,,0833.5,5.00,0.00,21.4,19.6,00.0,30.4,22.8,06.3,0000.0,0002.39,0003.93,0002.10
2023-02-10 10:17:00,,0833.5,5.01,0.00,21.3,19.6,00.0,30.3,22.8,06.3,0000.0,0002.37,0003.94,0002.09
2023-02-10 10:18:00,,0833.5,4.98,0.00,21.4,20.9,00.0,30.3,23.1,06.4,0000.0,0002.39,0003.99,0002.08
2023-02-10 10:19:00,,0833.6,4.99,0.00,21.6,22.0,00.0,30.3,23.4,06.3,0000.0,0002.34,0003.60,0002.05
2023-02-10 10:20:00,,0833.5,4.99,0.00,21.6,22.0,00.0,30.3,23.5,06.3,0000.0,0002.32,0003.52,0002.03
2023-02-10 10:21:00,,0833.4,5.00,0.00,21.6,21.3,00.0,30.4,23.3,06.3,0000.0,0002.29,0003.48,0002.00
2023-02-10 10:22:00,,0833.4,5.00,0.00,21.6,20.7,00.0,30.4,23.2,06.3,0000.0,0002.25,0003.35,0001.99
2023-02-10 10:23:00,,0833.4,5.02,0.00,21.6,20.2,00.0,30.4,23.1,06.3,0000.0,0002.24,0003.44,0001.97
2023-02-10 10:24:00,,0833.4,5.01,0.00,21.5,19.9,00.0,30.4,23.0,06.3,0000.0,0002.22,0003.47,0001.93
2023-02-10 10:25:00,,0833.4,5.00,0.00,21.4,19.5,00.0,30.4,22.9,06.3,0000.0,0002.22,0003.49,0001.91
2023-02-10 10:26:00,,0833.5,4.99,0.00,21.4,19.6,00.0,30.4,22.8,06.3,0000.0,0002.18,0003.26,0001.89
2023-02-10 10:27:00,,0833.4,4.99,0.00,21.5,20.8,00.0,30.3,23.2,06.3,0000.0,0002.16,0002.99,0001.86
2023-02-10 10:28:00,,0833.4,5.00,0.00,21.6,21.9,00.0,30.3,23.4,06.2,0000.0,0002.16,0002.99,0001.85
2023-02-10 10:29:00,,0833.4,5.00,0.00,21.7,22.5,00.0,30.4,23.7,06.2,0000.0,0002.12,0002.97,0001.84
2023-02-10 10:30:00,,0833.4,4.97,0.00,21.8,21.9,00.0,30.4,23.5,06.1,0000.0,0002.13,0003.03,0001.83
2023-02-10 10:31:00,,0833.4,5.06,0.00,21.7,21.0,00.0,30.5,23.3,06.1,0000.0,0002.12,0003.03,0001.82
2023-02-10 10:32:00,,0833.3,4.98,0.00,21.6,20.4,00.0,30.5,23.1,06.1,0000.0,0002.10,0003.00,0001.81
2023-02-10 10:33:00,,0833.3,5.00,0.00,21.5,19.9,00.0,30.5,22.9,06.2,0000.0,0002.09,0002.98,0001.80
2023-02-10 10:34:00,,0833.3,4.97,0.00,21.5,19.6,00.0,30.4,22.8,06.2,0000.0,0002.05,0002.76,0001.79
2023-02-10 10:35:00,,0833.2,5.01,0.00,21.4,19.3,00.0,30.4,22.7,06.2,0000.0,0002.01,0002.66,0001.79
2023-02-10 10:36:00,,0833.2,5.00,0.00,21.4,19.9,00.0,30.4,22.9,06.2,0000.0,0002.00,0002.63,0001.77
2023-02-10 10:37:00,,0833.1,5.00,0.00,21.5,21.2,00.0,30.3,23.2,06.2,0000.0,0002.01,0002.66,0001.78
2023-02-10 10:38:00,,0833.1,4.98,0.00,21.6,22.2,00.0,30.3,23.5,06.2,0000.0,0002.01,0002.77,0001.77
2023-02-10 10:39:00,,0833.1,5.00,0.00,21.7,22.4,00.0,30.4,23.6,06.1,0000.0,0001.98,0002.75,0001.76
2023-02-10 10:40:00,,0833.1,5.03,0.00,21.7,21.6,00.0,30.4,23.5,06.1,0000.0,0001.99,0002.76,0001.76
2023-02-10 10:41:00,,0833.1,4.99,0.00,21.7,20.9,00.0,30.5,23.3,06.1,0000.0,0001.98,0002.84,0001.76
2023-02-10 10:42:00,,0833.1,5.02,0.00,21.6,20.4,00.0,30.5,23.2,06.1,0000.0,0001.96,0002.99,0001.75
2023-02-10 10:43:00,,0833.1,5.01,0.00,21.6,19.9,00.0,30.5,23.0,06.1,0000.0,0001.96,0003.26,0001.74
2023-02-10 10:44:00,,0833.1,5.00,0.00,21.5,19.6,00.0,30.5,22.9,06.2,0000.0,0001.98,0003.37,0001.74
2023-02-10 10:45:00,,0833.1,5.00,0.00,21.5,19.5,00.0,30.4,22.9,06.2,0000.0,0001.98,0003.39,0001.73
2023-02-10 10:46:00,,0833.1,5.05,0.00,21.5,20.6,00.0,30.4,23.1,06.2,0000.0,0001.98,0003.43,0001.72
2023-02-10 10:47:00,,0833.1,4.95,0.00,21.6,21.7,00.0,30.4,23.4,06.2,0000.0,0001.98,0003.45,0001.72
2023-02-10 10:48:00,,0833.1,4.99,0.00,21.7,22.6,00.0,30.4,23.7,06.2,0000.0,0001.96,0003.38,0001.73
2023-02-10 10:49:00,,0833.0,4.98,0.00,21.8,22.2,00.0,30.5,23.7,06.1,0000.0,0001.96,0003.30,0001.74
2023-02-10 10:50:00,,0833.0,5.04,0.00,21.8,21.4,00.0,30.5,23.4,06.1,0000.0,0002.02,0003.34,0001.78
2023-02-10 10:51:00,,0833.0,4.98,0.00,21.7,20.8,00.0,30.5,23.3,06.2,0000.0,0002.03,0003.31,0001.80
2023-02-10 10:52:00,,0833.1,4.99,0.00,21.7,20.3,00.0,30.5,23.2,06.2,0000.0,0002.05,0003.31,0001.82
2023-02-10 10:53:00,,0833.1,5.00,0.00,21.6,19.9,00.0,30.5,23.1,06.2,0000.0,0002.09,0003.94,0001.85
2023-02-10 10:54:00,,0833.0,5.01,0.00,21.5,19.6,00.0,30.5,23.0,06.3,0000.0,0002.16,0004.66,0001.88
2023-02-10 10:55:00,,0833.0,5.01,0.00,21.5,19.5,00.0,30.5,22.9,06.3,0000.0,0002.21,0004.65,0001.94
2023-02-10 10:56:00,,0833.1,4.96,0.00,21.5,20.5,00.0,30.4,23.1,06.3,0000.0,0002.29,0004.80,0002.00
2023-02-10 10:57:00,,0833.1,5.04,0.00,21.6,21.7,00.0,30.4,23.4,06.3,0000.0,0002.35,0004.87,0002.05
2023-02-10 10:58:00,,0833.0,4.97,0.00,21.8,22.3,00.0,30.4,23.6,06.3,0000.0,0002.40,0004.92,0002.09
2023-02-10 10:59:00,,0833.1,5.05,0.00,21.7,21.5,00.0,30.5,23.4,06.5,0000.0,0002.45,0005.04,0002.12
